This is the latest recevied weather packets stored in our database for station/object K0QJ. If no packets are shown the sender has not sent any weather packets the latest 10 day(s).
| Time | Temp. | Humidity | Pressure | Rain* | Wind** | Luminosity | Snow |
|---|---|---|---|---|---|---|---|
| 1777761866 | 16.67° C | 35% | 1017.6 hPa | 0 mm | - | 62 W/m² | - |
| 1777761563 | 17.22° C | 34% | 1017.4 hPa | 0 mm | - | 38 W/m² | - |
| 1777761261 | 16.67° C | 33% | 1017.3 hPa | 0 mm | - | 38 W/m² | - |
| 1777760959 | 16.67° C | 35% | 1017.5 hPa | 0 mm | - | 38 W/m² | - |
| 1777760656 | 16.67° C | 32% | 1017.7 hPa | 0 mm | - | 38 W/m² | - |
| 1777760351 | 17.22° C | 34% | 1017.8 hPa | 0 mm | - | 39 W/m² | - |
| 1777760048 | 17.22° C | 34% | 1017.9 hPa | 0 mm | - | 42 W/m² | - |
| 1777759745 | 17.22° C | 34% | 1018 hPa | 0 mm | - | 46 W/m² | - |
| 1777759441 | 17.22° C | 34% | 1017.7 hPa | 0 mm | - | 42 W/m² | - |
| 1777759137 | 16.67° C | 34% | 1017.8 hPa | 0 mm | - | 42 W/m² | - |
| 1777758835 | 16.67° C | 33% | 1017.8 hPa | 0 mm | - | 45 W/m² | - |
| 1777758532 | 17.22° C | 33% | 1018.1 hPa | 0 mm | - | 43 W/m² | - |
| 1777758228 | 17.22° C | 34% | 1018 hPa | 0 mm | - | 45 W/m² | - |
| 1777757926 | 17.22° C | 35% | 1018.1 hPa | 0 mm | - | 46 W/m² | - |
| 1777757623 | 17.22° C | 35% | 1017.8 hPa | 0 mm | - | 47 W/m² | - |
| 1777757322 | 17.78° C | 32% | 1018.2 hPa | 0 mm | - | 48 W/m² | - |
| 1777757020 | 17.78° C | 33% | 1018 hPa | 0 mm | - | 49 W/m² | - |
| 1777756717 | 17.78° C | 32% | 1018.3 hPa | 0 mm | - | 50 W/m² | - |
| 1777756412 | 17.78° C | 35% | 1018.3 hPa | 0 mm | - | 59 W/m² | - |
| 1777756110 | 17.22° C | 36% | 1018.2 hPa | 0 mm | - | 55 W/m² | - |
| 1777755807 | 16.67° C | 35% | 1018.2 hPa | 0 mm | - | 62 W/m² | - |
| 1777755504 | 17.22° C | 35% | 1018.5 hPa | 0 mm | - | 248 W/m² | - |
| 1777755200 | 16.67° C | 33% | 1018.3 hPa | 0 mm | - | 59 W/m² | - |
| 1777754897 | 17.78° C | 33% | 1018.5 hPa | 0 mm | - | 71 W/m² | - |
| 1777754594 | 17.78° C | 34% | 1018.3 hPa | 0 mm | - | 553 W/m² | - |
* Rain latest hour (hover to see other rain measurements)
** Current wind speed in m/s (hover to see current wind gust speed)